Time,TemperatureF,DewpointF,PressureIn,WindDirection,WindDirectionDegrees,WindSpeedMPH,WindSpeedGustMPH,Humidity,HourlyPrecipIn,Conditions,Clouds,dailyrainin,SoftwareType,DateUTC
2013-07-16 00:01:00,71.0,70.1,30.35,SSW,194,0.0,0.0,97,0.00,,,0.06,Wunderground v.1.15,2013-07-16 04:01:00,
2013-07-16 00:02:00,71.0,70.1,30.35,SSW,194,0.0,0.0,97,0.00,,,0.06,Wunderground v.1.15,2013-07-16 04:02:00,
2013-07-16 00:04:00,71.0,70.1,30.35,SSW,194,0.0,0.0,97,0.00,,,0.06,Wunderground v.1.15,2013-07-16 04:04:00,
2013-07-16 00:08:00,70.9,70.0,30.35,SSW,194,0.0,0.0,97,0.00,,,0.06,Wunderground v.1.15,2013-07-16 04:08:00,
2013-07-16 00:09:00,70.9,70.0,30.35,SSW,194,0.0,0.0,97,0.00,,,0.06,Wunderground v.1.15,2013-07-16 04:09:00,
2013-07-16 00:11:00,70.8,69.9,30.35,SSW,194,0.0,0.0,97,0.00,,,0.06,Wunderground v.1.15,2013-07-16 04:11:00,
2013-07-16 00:13:00,70.8,69.9,30.35,SSW,194,0.0,0.0,97,0.00,,,0.06,Wunderground v.1.15,2013-07-16 04:13:00,
2013-07-16 00:14:00,70.8,69.9,30.35,SSW,195,0.0,0.0,97,0.00,,,0.06,Wunderground v.1.15,2013-07-16 04:14:00,
2013-07-16 00:16:00,70.7,69.8,30.35,SSW,194,0.0,0.0,97,0.00,,,0.06,Wunderground v.1.15,2013-07-16 04:16:00,
2013-07-16 00:17:00,70.7,69.8,30.35,SSW,194,0.0,0.0,97,0.00,,,0.06,Wunderground v.1.15,2013-07-16 04:17:00,
2013-07-16 00:20:00,70.7,69.8,30.35,SSW,195,0.0,0.0,97,0.00,,,0.06,Wunderground v.1.15,2013-07-16 04:20:00,
2013-07-16 00:22:00,70.7,69.8,30.35,SSW,194,0.0,0.0,97,0.00,,,0.06,Wunderground v.1.15,2013-07-16 04:22:00,
2013-07-16 00:24:00,70.7,69.8,30.35,SSW,194,0.0,0.0,97,0.00,,,0.06,Wunderground v.1.15,2013-07-16 04:24:00,
2013-07-16 00:26:00,70.6,69.7,30.35,SSW,194,0.0,0.0,97,0.00,,,0.06,Wunderground v.1.15,2013-07-16 04:26:00,
2013-07-16 12:10:00,85.8,73.6,30.34,SW,229,2.0,3.0,67,0.00,,,0.00,Wunderground v.1.15,2013-07-16 16:10:00,
2013-07-16 12:11:00,85.7,73.0,30.34,SW,221,3.0,4.0,66,0.00,,,0.00,Wunderground v.1.15,2013-07-16 16:11:00,
2013-07-16 12:15:00,85.7,73.5,30.34,ENE,71,2.0,4.0,67,0.00,,,0.00,Wunderground v.1.15,2013-07-16 16:15:00,
2013-07-16 12:16:00,85.7,73.9,30.34,NNE,25,1.0,4.0,68,0.00,,,0.00,Wunderground v.1.15,2013-07-16 16:16:00,
2013-07-16 12:20:00,86.0,73.8,30.34,SW,235,0.0,2.0,67,0.00,,,0.00,Wunderground v.1.15,2013-07-16 16:20:00,
2013-07-16 12:21:00,86.0,73.8,30.34,WSW,240,0.0,2.0,67,0.00,,,0.00,Wunderground v.1.15,2013-07-16 16:21:00,
2013-07-16 12:26:00,86.9,75.9,30.34,NNW,335,2.0,3.0,70,0.00,,,0.00,Wunderground v.1.15,2013-07-16 16:26:00,
2013-07-16 12:27:00,87.0,74.7,30.34,ENE,77,1.0,3.0,67,0.00,,,0.00,Wunderground v.1.15,2013-07-16 16:27:00,
2013-07-16 12:31:00,87.5,74.7,30.34,NNW,342,1.0,3.0,66,0.00,,,0.00,Wunderground v.1.15,2013-07-16 16:31:00,
2013-07-16 12:32:00,87.6,74.8,30.34,NNW,342,0.0,3.0,66,0.00,,,0.00,Wunderground v.1.15,2013-07-16 16:32:00,
2013-07-16 12:36:00,87.5,74.7,30.33,North,9,5.0,5.0,66,0.00,,,0.00,Wunderground v.1.15,2013-07-16 16:36:00,
2013-07-16 12:37:00,87.4,73.7,30.33,North,360,2.0,5.0,64,0.00,,,0.00,Wunderground v.1.15,2013-07-16 16:37:00,
2013-07-16 12:41:00,86.9,73.7,30.33,NNW,342,0.0,2.0,65,0.00,,,0.00,Wunderground v.1.15,2013-07-16 16:41:00,
2013-07-16 12:42:00,86.9,74.2,30.33,NNE,33,1.0,2.0,66,0.00,,,0.00,Wunderground v.1.15,2013-07-16 16:42:00,
2013-07-16 12:46:00,86.7,75.3,30.33,NNE,26,1.0,8.0,69,0.00,,,0.00,Wunderground v.1.15,2013-07-16 16:46:00,
2013-07-16 12:47:00,86.7,75.3,30.33,NW,319,2.0,8.0,69,0.00,,,0.00,Wunderground v.1.15,2013-07-16 16:47:00,
2013-07-16 12:48:00,86.8,75.4,30.33,North,6,3.0,8.0,69,0.00,,,0.00,Wunderground v.1.15,2013-07-16 16:48:00,
2013-07-16 12:51:00,87.1,73.4,30.33,West,262,1.0,4.0,64,0.00,,,0.00,Wunderground v.1.15,2013-07-16 16:51:00,
2013-07-16 12:52:00,87.2,73.5,30.33,WSW,240,1.0,4.0,64,0.00,,,0.00,Wunderground v.1.15,2013-07-16 16:52:00,
2013-07-16 12:53:00,87.4,76.4,30.33,North,351,2.0,4.0,70,0.00,,,0.00,Wunderground v.1.15,2013-07-16 16:53:00,
2013-07-16 12:56:00,87.6,74.4,30.33,NW,321,3.0,4.0,65,0.00,,,0.00,Wunderground v.1.15,2013-07-16 16:56:00,
2013-07-16 12:57:00,87.7,74.5,30.33,NNW,333,1.0,4.0,65,0.00,,,0.00,Wunderground v.1.15,2013-07-16 16:57:00,
2013-07-16 12:58:00,87.7,74.5,30.33,NNE,30,1.0,4.0,65,0.00,,,0.00,Wunderground v.1.15,2013-07-16 16:58:00,
2013-07-16 13:01:00,87.8,74.6,30.33,WSW,248,1.0,2.0,65,0.00,,,0.00,Wunderground v.1.15,2013-07-16 17:01:00,
2013-07-16 13:02:00,87.8,75.9,30.33,West,274,1.0,2.0,68,0.00,,,0.00,Wunderground v.1.15,2013-07-16 17:02:00,
2013-07-16 13:03:00,88.0,77.0,30.33,NE,50,1.0,2.0,70,0.00,,,0.00,Wunderground v.1.15,2013-07-16 17:03:00,
2013-07-16 13:06:00,88.6,74.9,30.33,North,9,2.0,4.0,64,0.00,,,0.00,Wunderground v.1.15,2013-07-16 17:06:00,
2013-07-16 13:07:00,88.7,74.5,30.33,NNW,347,4.0,4.0,63,0.00,,,0.00,Wunderground v.1.15,2013-07-16 17:07:00,
2013-07-16 13:08:00,88.8,74.1,30.33,NW,311,2.0,4.0,62,0.00,,,0.00,Wunderground v.1.15,2013-07-16 17:08:00,
2013-07-16 13:11:00,88.5,75.2,30.33,NNW,339,2.0,4.0,65,0.00,,,0.00,Wunderground v.1.15,2013-07-16 17:11:00,
2013-07-16 13:12:00,88.5,74.3,30.33,NNE,23,3.0,4.0,63,0.00,,,0.00,Wunderground v.1.15,2013-07-16 17:12:00,
2013-07-16 13:13:00,88.4,73.7,30.33,North,360,2.0,4.0,62,0.00,,,0.00,Wunderground v.1.15,2013-07-16 17:13:00,
2013-07-16 13:14:00,88.4,74.7,30.33,NE,38,2.0,4.0,64,0.00,,,0.00,Wunderground v.1.15,2013-07-16 17:14:00,
2013-07-16 13:16:00,88.2,74.0,30.33,SE,128,2.0,4.0,63,0.00,,,0.00,Wunderground v.1.15,2013-07-16 17:16:00,
2013-07-16 13:17:00,88.3,74.6,30.33,NNE,27,3.0,4.0,64,0.00,,,0.00,Wunderground v.1.15,2013-07-16 17:17:00,
2013-07-16 13:18:00,88.3,73.1,30.33,NNE,30,2.0,4.0,61,0.00,,,0.00,Wunderground v.1.15,2013-07-16 17:18:00,
2013-07-16 13:19:00,88.3,74.6,30.32,WSW,238,2.0,4.0,64,0.00,,,0.00,Wunderground v.1.15,2013-07-16 17:19:00,
2013-07-16 13:21:00,88.4,73.2,30.32,WNW,297,1.0,2.0,61,0.00,,,0.00,Wunderground v.1.15,2013-07-16 17:21:00,
2013-07-16 13:22:00,88.5,73.8,30.32,North,11,1.0,4.0,62,0.00,,,0.00,Wunderground v.1.15,2013-07-16 17:22:00,
2013-07-16 13:23:00,88.6,73.9,30.32,WSW,240,3.0,6.0,62,0.00,,,0.00,Wunderground v.1.15,2013-07-16 17:23:00,
2013-07-16 13:24:00,88.6,73.9,30.32,West,263,1.0,6.0,62,0.00,,,0.00,Wunderground v.1.15,2013-07-16 17:24:00,
2013-07-16 13:26:00,88.9,75.1,30.32,SSW,207,0.0,6.0,64,0.00,,,0.00,Wunderground v.1.15,2013-07-16 17:26:00,
2013-07-16 13:27:00,89.0,74.8,30.32,SW,229,0.0,6.0,63,0.00,,,0.00,Wunderground v.1.15,2013-07-16 17:27:00,
2013-07-16 13:29:00,89.2,73.5,30.32,ESE,117,0.0,6.0,60,0.00,,,0.00,Wunderground v.1.15,2013-07-16 17:29:00,
2013-07-16 13:32:00,89.9,75.1,30.32,North,358,1.0,2.0,62,0.00,,,0.00,Wunderground v.1.15,2013-07-16 17:32:00,
2013-07-16 13:34:00,90.2,74.9,30.32,East,89,1.0,2.0,61,0.00,,,0.00,Wunderground v.1.15,2013-07-16 17:34:00,
2013-07-16 13:35:00,90.4,75.6,30.32,NNE,25,3.0,3.0,62,0.00,,,0.00,Wunderground v.1.15,2013-07-16 17:35:00,
2013-07-16 13:37:00,90.0,72.7,30.32,North,358,4.0,7.0,57,0.00,,,0.00,Wunderground v.1.15,2013-07-16 17:37:00,
2013-07-16 13:38:00,89.7,73.0,30.32,NNE,26,1.0,7.0,58,0.00,,,0.00,Wunderground v.1.15,2013-07-16 17:38:00,
2013-07-16 13:39:00,89.4,73.2,30.32,NNW,330,1.0,7.0,59,0.00,,,0.00,Wunderground v.1.15,2013-07-16 17:39:00,
2013-07-16 13:40:00,89.2,74.0,30.32,North,349,3.0,5.0,61,0.00,,,0.00,Wunderground v.1.15,2013-07-16 17:40:00,
2013-07-16 13:42:00,89.1,73.9,30.32,NW,325,3.0,5.0,61,0.00,,,0.00,Wunderground v.1.15,2013-07-16 17:42:00,
2013-07-16 13:43:00,89.0,73.3,30.32,NNW,340,3.0,5.0,60,0.00,,,0.00,Wunderground v.1.15,2013-07-16 17:43:00,
2013-07-16 13:44:00,88.9,73.7,30.32,WNW,290,2.0,5.0,61,0.00,,,0.00,Wunderground v.1.15,2013-07-16 17:44:00,
2013-07-16 13:45:00,88.9,75.1,30.31,WNW,300,0.0,5.0,64,0.00,,,0.00,Wunderground v.1.15,2013-07-16 17:45:00,
2013-07-16 13:47:00,89.0,74.8,30.31,NW,305,1.0,5.0,63,0.00,,,0.00,Wunderground v.1.15,2013-07-16 17:47:00,
2013-07-16 13:48:00,89.1,73.4,30.31,SW,221,1.0,5.0,60,0.00,,,0.00,Wunderground v.1.15,2013-07-16 17:48:00,
2013-07-16 13:49:00,89.1,72.9,30.31,SW,217,2.0,5.0,59,0.00,,,0.00,Wunderground v.1.15,2013-07-16 17:49:00,
2013-07-16 13:50:00,89.1,73.9,30.32,North,350,2.0,2.0,61,0.00,,,0.00,Wunderground v.1.15,2013-07-16 17:50:00,
2013-07-16 13:52:00,89.2,72.5,30.31,East,98,1.0,3.0,58,0.00,,,0.00,Wunderground v.1.15,2013-07-16 17:52:00,
2013-07-16 13:54:00,89.4,73.2,30.31,NNE,18,4.0,4.0,59,0.00,,,0.00,Wunderground v.1.15,2013-07-16 17:54:00,
2013-07-16 13:55:00,89.4,73.2,30.31,NE,48,8.0,8.0,59,0.00,,,0.00,Wunderground v.1.15,2013-07-16 17:55:00,
2013-07-16 13:56:00,89.2,73.0,30.31,NW,325,3.0,8.0,59,0.00,,,0.00,Wunderground v.1.15,2013-07-16 17:56:00,
2013-07-16 13:57:00,89.0,73.8,30.31,North,354,2.0,8.0,61,0.00,,,0.00,Wunderground v.1.15,2013-07-16 17:57:00,
2013-07-16 13:59:00,88.7,73.0,30.31,NNW,335,4.0,8.0,60,0.00,,,0.00,Wunderground v.1.15,2013-07-16 17:59:00,
2013-07-16 14:00:00,88.7,74.0,30.31,WNW,292,1.0,3.0,62,0.00,,,0.00,Wunderground v.1.15,2013-07-16 18:00:00,
2013-07-16 14:01:00,88.6,73.4,30.31,WNW,300,0.0,4.0,61,0.00,,,0.00,Wunderground v.1.15,2013-07-16 18:01:00,
2013-07-16 14:03:00,88.6,74.4,30.31,NNW,340,3.0,4.0,63,0.00,,,0.00,Wunderground v.1.15,2013-07-16 18:03:00,
2013-07-16 14:04:00,88.6,73.4,30.31,NNE,20,4.0,5.0,61,0.00,,,0.00,Wunderground v.1.15,2013-07-16 18:04:00,
2013-07-16 14:05:00,88.6,73.9,30.31,NNE,25,3.0,5.0,62,0.00,,,0.00,Wunderground v.1.15,2013-07-16 18:05:00,
2013-07-16 14:06:00,88.6,73.4,30.31,NNW,348,3.0,5.0,61,0.00,,,0.00,Wunderground v.1.15,2013-07-16 18:06:00,
2013-07-16 14:08:00,88.6,73.4,30.31,NNE,33,1.0,6.0,61,0.00,,,0.00,Wunderground v.1.15,2013-07-16 18:08:00,
2013-07-16 14:09:00,88.6,73.9,30.30,NNW,343,1.0,6.0,62,0.00,,,0.00,Wunderground v.1.15,2013-07-16 18:09:00,
2013-07-16 14:10:00,88.6,73.9,30.30,NNE,20,2.0,2.0,62,0.00,,,0.00,Wunderground v.1.15,2013-07-16 18:10:00,
2013-07-16 14:11:00,88.6,73.9,30.31,NE,40,3.0,5.0,62,0.00,,,0.00,Wunderground v.1.15,2013-07-16 18:11:00,
2013-07-16 14:13:00,88.5,74.3,30.31,NW,315,3.0,8.0,63,0.00,,,0.00,Wunderground v.1.15,2013-07-16 18:13:00,
2013-07-16 14:14:00,88.2,73.0,30.31,NW,321,3.0,8.0,61,0.00,,,0.00,Wunderground v.1.15,2013-07-16 18:14:00,
2013-07-16 14:15:00,88.2,73.5,30.31,NE,38,6.0,8.0,62,0.00,,,0.00,Wunderground v.1.15,2013-07-16 18:15:00,
2013-07-16 14:16:00,88.0,73.8,30.31,NE,53,4.0,8.0,63,0.00,,,0.00,Wunderground v.1.15,2013-07-16 18:16:00,
2013-07-16 14:18:00,87.9,74.2,30.30,NE,44,2.0,8.0,64,0.00,,,0.00,Wunderground v.1.15,2013-07-16 18:18:00,
2013-07-16 14:20:00,87.7,73.1,30.30,NNE,26,2.0,3.0,62,0.00,,,0.00,Wunderground v.1.15,2013-07-16 18:20:00,
2013-07-16 14:22:00,87.5,72.9,30.30,East,98,0.0,3.0,62,0.00,,,0.00,Wunderground v.1.15,2013-07-16 18:22:00,
2013-07-16 14:23:00,87.5,73.3,30.30,SW,225,2.0,3.0,63,0.00,,,0.00,Wunderground v.1.15,2013-07-16 18:23:00,
2013-07-16 14:25:00,87.8,74.1,30.30,SW,229,0.0,3.0,64,0.00,,,0.00,Wunderground v.1.15,2013-07-16 18:25:00,
2013-07-16 14:27:00,88.1,73.9,30.30,NW,319,2.0,3.0,63,0.00,,,0.00,Wunderground v.1.15,2013-07-16 18:27:00,
2013-07-16 14:28:00,88.1,73.0,30.30,WNW,290,0.0,3.0,61,0.00,,,0.00,Wunderground v.1.15,2013-07-16 18:28:00,
2013-07-16 14:30:00,88.0,72.9,30.30,North,5,2.0,2.0,61,0.00,,,0.00,Wunderground v.1.15,2013-07-16 18:30:00,
2013-07-16 14:32:00,88.0,72.9,30.30,North,353,0.0,2.0,61,0.00,,,0.00,Wunderground v.1.15,2013-07-16 18:32:00,
2013-07-16 14:33:00,88.1,74.4,30.30,North,353,0.0,2.0,64,0.00,,,0.00,Wunderground v.1.15,2013-07-16 18:33:00,
2013-07-16 14:35:00,88.2,73.0,30.30,ENE,67,1.0,2.0,61,0.00,,,0.00,Wunderground v.1.15,2013-07-16 18:35:00,
2013-07-16 14:38:00,88.4,74.7,30.30,East,94,0.0,2.0,64,0.00,,,0.00,Wunderground v.1.15,2013-07-16 18:38:00,
2013-07-16 14:39:00,88.5,75.2,30.30,NW,312,1.0,2.0,65,0.00,,,0.00,Wunderground v.1.15,2013-07-16 18:39:00,
2013-07-16 14:40:00,88.9,74.2,30.30,NNW,333,1.0,3.0,62,0.00,,,0.00,Wunderground v.1.15,2013-07-16 18:40:00,
2013-07-16 14:41:00,89.0,74.3,30.30,NNW,333,0.0,3.0,62,0.00,,,0.00,Wunderground v.1.15,2013-07-16 18:41:00,
2013-07-16 14:43:00,89.1,73.4,30.30,North,7,2.0,6.0,60,0.00,,,0.00,Wunderground v.1.15,2013-07-16 18:43:00,
2013-07-16 14:44:00,89.0,73.3,30.30,North,360,4.0,6.0,60,0.00,,,0.00,Wunderground v.1.15,2013-07-16 18:44:00,
2013-07-16 14:46:00,89.2,74.0,30.30,West,267,0.0,6.0,61,0.00,,,0.00,Wunderground v.1.15,2013-07-16 18:46:00,
2013-07-16 14:49:00,89.4,73.2,30.30,North,353,1.0,6.0,59,0.00,,,0.00,Wunderground v.1.15,2013-07-16 18:49:00,
2013-07-16 14:51:00,89.5,73.3,30.30,WNW,290,0.0,3.0,59,0.00,,,0.00,Wunderground v.1.15,2013-07-16 18:51:00,
2013-07-16 14:54:00,90.1,74.8,30.30,SW,232,3.0,3.0,61,0.00,,,0.00,Wunderground v.1.15,2013-07-16 18:54:00,
2013-07-16 14:56:00,90.2,73.9,30.30,SSW,200,0.0,3.0,59,0.00,,,0.00,Wunderground v.1.15,2013-07-16 18:56:00,
2013-07-16 14:59:00,90.4,74.1,30.30,SE,133,1.0,4.0,59,0.00,,,0.00,Wunderground v.1.15,2013-07-16 18:59:00,
2013-07-16 15:01:00,90.5,74.7,30.29,NNW,348,2.0,3.0,60,0.00,,,0.00,Wunderground v.1.15,2013-07-16 19:01:00,
2013-07-16 15:02:00,90.5,74.7,30.29,ENE,64,1.0,4.0,60,0.00,,,0.00,Wunderground v.1.15,2013-07-16 19:02:00,
2013-07-16 15:04:00,90.5,74.2,30.30,NW,315,2.0,5.0,59,0.00,,,0.00,Wunderground v.1.15,2013-07-16 19:04:00,
2013-07-16 15:05:00,90.5,76.2,30.30,NW,316,0.0,5.0,63,0.00,,,0.00,Wunderground v.1.15,2013-07-16 19:05:00,
2013-07-16 15:06:00,90.4,74.1,30.30,NW,316,0.0,5.0,59,0.00,,,0.00,Wunderground v.1.15,2013-07-16 19:06:00,
2013-07-16 15:07:00,90.3,73.5,30.30,SW,229,2.0,5.0,58,0.00,,,0.00,Wunderground v.1.15,2013-07-16 19:07:00,
2013-07-16 15:09:00,90.0,71.7,30.29,SW,218,1.0,5.0,55,0.00,,,0.00,Wunderground v.1.15,2013-07-16 19:09:00,
2013-07-16 15:10:00,90.0,71.7,30.29,WSW,250,1.0,2.0,55,0.00,,,0.00,Wunderground v.1.15,2013-07-16 19:10:00,
2013-07-16 15:11:00,90.0,73.2,30.29,West,261,0.0,2.0,58,0.00,,,0.00,Wunderground v.1.15,2013-07-16 19:11:00,
2013-07-16 15:12:00,90.1,73.3,30.30,West,262,0.0,2.0,58,0.00,,,0.00,Wunderground v.1.15,2013-07-16 19:12:00,
2013-07-16 15:14:00,90.4,72.6,30.30,WSW,240,2.0,3.0,56,0.00,,,0.00,Wunderground v.1.15,2013-07-16 19:14:00,
2013-07-16 15:15:00,90.4,71.5,30.29,SW,215,2.0,3.0,54,0.00,,,0.00,Wunderground v.1.15,2013-07-16 19:15:00,
2013-07-16 15:17:00,90.4,72.0,30.29,SE,139,1.0,3.0,55,0.00,,,0.00,Wunderground v.1.15,2013-07-16 19:17:00,
2013-07-16 15:19:00,90.8,72.9,30.29,SSE,153,2.0,4.0,56,0.00,,,0.00,Wunderground v.1.15,2013-07-16 19:19:00,
2013-07-16 15:20:00,90.9,72.5,30.29,SSW,200,2.0,3.0,55,0.00,,,0.00,Wunderground v.1.15,2013-07-16 19:20:00,
2013-07-16 15:22:00,91.1,72.7,30.29,SW,235,0.0,3.0,55,0.00,,,0.00,Wunderground v.1.15,2013-07-16 19:22:00,
2013-07-16 15:25:00,91.7,75.3,30.29,WNW,286,0.0,3.0,59,0.00,,,0.00,Wunderground v.1.15,2013-07-16 19:25:00,
2013-07-16 15:26:00,91.9,75.5,30.29,SSE,148,0.0,3.0,59,0.00,,,0.00,Wunderground v.1.15,2013-07-16 19:26:00,
2013-07-16 15:27:00,92.1,75.2,30.29,NNW,339,4.0,5.0,58,0.00,,,0.00,Wunderground v.1.15,2013-07-16 19:27:00,
2013-07-16 15:28:00,92.0,73.5,30.29,NNW,335,4.0,5.0,55,0.00,,,0.00,Wunderground v.1.15,2013-07-16 19:28:00,
2013-07-16 15:30:00,91.6,73.1,30.29,South,190,1.0,1.0,55,0.00,,,0.00,Wunderground v.1.15,2013-07-16 19:30:00,
2013-07-16 15:31:00,91.6,73.1,30.29,SE,145,1.0,1.0,55,0.00,,,0.00,Wunderground v.1.15,2013-07-16 19:31:00,
2013-07-16 15:32:00,91.6,73.1,30.29,SE,137,0.0,2.0,55,0.00,,,0.00,Wunderground v.1.15,2013-07-16 19:32:00,
2013-07-16 15:33:00,91.7,74.3,30.29,ENE,74,1.0,2.0,57,0.00,,,0.00,Wunderground v.1.15,2013-07-16 19:33:00,
2013-07-16 15:35:00,91.6,75.2,30.29,WNW,302,0.0,4.0,59,0.00,,,0.00,Wunderground v.1.15,2013-07-16 19:35:00,
2013-07-16 15:36:00,91.6,75.2,30.29,NNE,30,1.0,4.0,59,0.00,,,0.00,Wunderground v.1.15,2013-07-16 19:36:00,
2013-07-16 15:37:00,91.6,75.2,30.29,NNE,23,2.0,4.0,59,0.00,,,0.00,Wunderground v.1.15,2013-07-16 19:37:00,
2013-07-16 15:38:00,91.6,75.2,30.29,North,356,2.0,4.0,59,0.00,,,0.00,Wunderground v.1.15,2013-07-16 19:38:00,
2013-07-16 15:40:00,91.4,74.0,30.29,NNW,333,3.0,3.0,57,0.00,,,0.00,Wunderground v.1.15,2013-07-16 19:40:00,
2013-07-16 15:41:00,91.2,74.4,30.29,WNW,300,0.0,3.0,58,0.00,,,0.00,Wunderground v.1.15,2013-07-16 19:41:00,
2013-07-16 15:42:00,91.1,74.8,30.29,WNW,290,0.0,3.0,59,0.00,,,0.00,Wunderground v.1.15,2013-07-16 19:42:00,
2013-07-16 15:43:00,91.1,74.8,30.29,WNW,284,0.0,3.0,59,0.00,,,0.00,Wunderground v.1.15,2013-07-16 19:43:00,
2013-07-16 15:45:00,91.1,73.2,30.29,SSW,204,2.0,3.0,56,0.00,,,0.00,Wunderground v.1.15,2013-07-16 19:45:00,
2013-07-16 15:46:00,91.1,73.2,30.28,SSW,207,1.0,3.0,56,0.00,,,0.00,Wunderground v.1.15,2013-07-16 19:46:00,
2013-07-16 15:47:00,91.1,73.2,30.28,SSE,167,1.0,3.0,56,0.00,,,0.00,Wunderground v.1.15,2013-07-16 19:47:00,
2013-07-16 15:48:00,91.1,73.2,30.28,South,171,0.0,3.0,56,0.00,,,0.00,Wunderground v.1.15,2013-07-16 19:48:00,
2013-07-16 15:51:00,91.5,74.1,30.28,NNW,339,5.0,5.0,57,0.00,,,0.00,Wunderground v.1.15,2013-07-16 19:51:00,
2013-07-16 15:52:00,91.3,73.9,30.28,NNW,347,2.0,6.0,57,0.00,,,0.00,Wunderground v.1.15,2013-07-16 19:52:00,
2013-07-16 15:53:00,91.1,73.7,30.28,NNW,339,3.0,6.0,57,0.00,,,0.00,Wunderground v.1.15,2013-07-16 19:53:00,
2013-07-16 15:54:00,91.1,73.7,30.28,WSW,240,1.0,6.0,57,0.00,,,0.00,Wunderground v.1.15,2013-07-16 19:54:00,
2013-07-16 15:56:00,91.0,74.2,30.28,WNW,302,0.0,6.0,58,0.00,,,0.00,Wunderground v.1.15,2013-07-16 19:56:00,
2013-07-16 15:57:00,91.0,74.2,30.28,NNW,330,2.0,6.0,58,0.00,,,0.00,Wunderground v.1.15,2013-07-16 19:57:00,
2013-07-16 15:58:00,90.9,74.1,30.28,NW,308,2.0,6.0,58,0.00,,,0.00,Wunderground v.1.15,2013-07-16 19:58:00,
2013-07-16 15:59:00,90.9,74.1,30.28,NE,47,4.0,6.0,58,0.00,,,0.00,Wunderground v.1.15,2013-07-16 19:59:00,
2013-07-16 16:01:00,90.6,73.3,30.28,WNW,294,2.0,4.0,57,0.00,,,0.00,Wunderground v.1.15,2013-07-16 20:01:00,
2013-07-16 16:02:00,90.4,73.6,30.28,NNE,16,4.0,4.0,58,0.00,,,0.00,Wunderground v.1.15,2013-07-16 20:02:00,
2013-07-16 16:04:00,90.3,73.5,30.28,NE,53,4.0,5.0,58,0.00,,,0.00,Wunderground v.1.15,2013-07-16 20:04:00,
2013-07-16 16:06:00,90.1,73.8,30.28,NE,36,2.0,5.0,59,0.00,,,0.00,Wunderground v.1.15,2013-07-16 20:06:00,
2013-07-16 16:07:00,90.1,73.8,30.28,NE,56,4.0,5.0,59,0.00,,,0.00,Wunderground v.1.15,2013-07-16 20:07:00,
2013-07-16 16:09:00,90.0,73.2,30.28,NNE,13,5.0,5.0,58,0.00,,,0.00,Wunderground v.1.15,2013-07-16 20:09:00,
2013-07-16 16:11:00,90.0,73.7,30.27,NW,305,1.0,3.0,59,0.00,,,0.00,Wunderground v.1.15,2013-07-16 20:11:00,
2013-07-16 16:12:00,90.1,74.3,30.27,WNW,297,1.0,3.0,60,0.00,,,0.00,Wunderground v.1.15,2013-07-16 20:12:00,
2013-07-16 16:13:00,90.1,74.3,30.27,WNW,296,2.0,3.0,60,0.00,,,0.00,Wunderground v.1.15,2013-07-16 20:13:00,
2013-07-16 16:14:00,90.2,73.9,30.27,NW,306,1.0,3.0,59,0.00,,,0.00,Wunderground v.1.15,2013-07-16 20:14:00,
2013-07-16 16:17:00,90.2,74.4,30.27,NW,304,0.0,3.0,60,0.00,,,0.00,Wunderground v.1.15,2013-07-16 20:17:00,
2013-07-16 16:18:00,90.3,74.0,30.27,ENE,58,0.0,3.0,59,0.00,,,0.00,Wunderground v.1.15,2013-07-16 20:18:00,
2013-07-16 16:19:00,90.4,73.6,30.27,NE,43,3.0,4.0,58,0.00,,,0.00,Wunderground v.1.15,2013-07-16 20:19:00,
2013-07-16 16:22:00,90.5,73.7,30.27,WSW,243,2.0,3.0,58,0.00,,,0.00,Wunderground v.1.15,2013-07-16 20:22:00,
2013-07-16 16:23:00,90.6,74.8,30.27,NNE,20,3.0,3.0,60,0.00,,,0.00,Wunderground v.1.15,2013-07-16 20:23:00,
2013-07-16 16:24:00,90.6,74.3,30.27,NNW,341,1.0,4.0,59,0.00,,,0.00,Wunderground v.1.15,2013-07-16 20:24:00,
2013-07-16 16:25:00,90.6,73.8,30.27,NE,39,3.0,4.0,58,0.00,,,0.00,Wunderground v.1.15,2013-07-16 20:25:00,
2013-07-16 16:27:00,90.6,73.8,30.27,NNW,338,0.0,4.0,58,0.00,,,0.00,Wunderground v.1.15,2013-07-16 20:27:00,
2013-07-16 16:28:00,90.7,74.9,30.27,North,11,2.0,4.0,60,0.00,,,0.00,Wunderground v.1.15,2013-07-16 20:28:00,
2013-07-16 16:29:00,90.8,73.5,30.27,NW,317,1.0,4.0,57,0.00,,,0.00,Wunderground v.1.15,2013-07-16 20:29:00,
2013-07-16 16:30:00,90.8,74.5,30.27,NE,46,2.0,3.0,59,0.00,,,0.00,Wunderground v.1.15,2013-07-16 20:30:00,
2013-07-16 16:32:00,90.7,73.4,30.27,NNE,27,4.0,5.0,57,0.00,,,0.00,Wunderground v.1.15,2013-07-16 20:32:00,
2013-07-16 16:33:00,90.6,72.2,30.27,NE,52,4.0,5.0,55,0.00,,,0.00,Wunderground v.1.15,2013-07-16 20:33:00,
2013-07-16 16:35:00,90.3,74.0,30.27,East,94,1.0,5.0,59,0.00,,,0.00,Wunderground v.1.15,2013-07-16 20:35:00,
2013-07-16 16:38:00,90.2,73.4,30.27,NNE,13,2.0,5.0,58,0.00,,,0.00,Wunderground v.1.15,2013-07-16 20:38:00,
2013-07-16 16:40:00,90.1,73.3,30.27,NNE,18,1.0,2.0,58,0.00,,,0.00,Wunderground v.1.15,2013-07-16 20:40:00,
2013-07-16 16:43:00,90.3,74.5,30.27,WNW,294,2.0,3.0,60,0.00,,,0.00,Wunderground v.1.15,2013-07-16 20:43:00,
2013-07-16 16:45:00,90.5,75.2,30.27,NNE,26,4.0,4.0,61,0.00,,,0.00,Wunderground v.1.15,2013-07-16 20:45:00,
2013-07-16 16:48:00,90.3,73.5,30.27,ENE,61,0.0,5.0,58,0.00,,,0.00,Wunderground v.1.15,2013-07-16 20:48:00,
2013-07-16 16:50:00,90.3,73.5,30.27,ENE,58,0.0,2.0,58,0.00,,,0.00,Wunderground v.1.15,2013-07-16 20:50:00,
2013-07-16 16:53:00,90.7,74.4,30.27,West,260,1.0,3.0,59,0.00,,,0.00,Wunderground v.1.15,2013-07-16 20:53:00,
2013-07-16 16:54:00,90.7,73.9,30.27,SW,232,3.0,4.0,58,0.00,,,0.00,Wunderground v.1.15,2013-07-16 20:54:00,
2013-07-16 16:55:00,90.6,73.3,30.27,WSW,249,1.0,4.0,57,0.00,,,0.00,Wunderground v.1.15,2013-07-16 20:55:00,
2013-07-16 16:58:00,90.7,73.4,30.27,North,11,0.0,4.0,57,0.00,,,0.00,Wunderground v.1.15,2013-07-16 20:58:00,
2013-07-16 16:59:00,90.8,75.5,30.27,North,4,2.0,4.0,61,0.00,,,0.00,Wunderground v.1.15,2013-07-16 20:59:00,
2013-07-16 17:00:00,90.8,75.0,30.27,NNW,330,0.0,2.0,60,0.00,,,0.00,Wunderground v.1.15,2013-07-16 21:00:00,
2013-07-16 17:03:00,91.1,74.8,30.27,ENE,58,2.0,2.0,59,0.00,,,0.00,Wunderground v.1.15,2013-07-16 21:03:00,
2013-07-16 17:04:00,91.2,75.4,30.27,West,280,1.0,2.0,60,0.00,,,0.00,Wunderground v.1.15,2013-07-16 21:04:00,
2013-07-16 17:05:00,91.2,75.9,30.27,NNW,330,0.0,2.0,61,0.00,,,0.00,Wunderground v.1.15,2013-07-16 21:05:00,
2013-07-16 17:06:00,91.2,73.8,30.27,NNW,330,0.0,2.0,57,0.00,,,0.00,Wunderground v.1.15,2013-07-16 21:06:00,
2013-07-16 17:08:00,91.4,74.5,30.27,WSW,238,3.0,3.0,58,0.00,,,0.00,Wunderground v.1.15,2013-07-16 21:08:00,
2013-07-16 17:09:00,91.3,72.9,30.27,WSW,248,2.0,3.0,55,0.00,,,0.00,Wunderground v.1.15,2013-07-16 21:09:00,
2013-07-16 17:10:00,91.3,73.4,30.27,WSW,248,2.0,2.0,56,0.00,,,0.00,Wunderground v.1.15,2013-07-16 21:10:00,
2013-07-16 17:11:00,91.2,73.3,30.27,WSW,242,1.0,2.0,56,0.00,,,0.00,Wunderground v.1.15,2013-07-16 21:11:00,
2013-07-16 17:13:00,91.2,72.8,30.27,East,100,0.0,3.0,55,0.00,,,0.00,Wunderground v.1.15,2013-07-16 21:13:00,
2013-07-16 17:15:00,91.2,72.8,30.27,South,181,0.0,3.0,55,0.00,,,0.00,Wunderground v.1.15,2013-07-16 21:15:00,
2013-07-16 17:16:00,91.3,73.4,30.27,SW,235,0.0,3.0,56,0.00,,,0.00,Wunderground v.1.15,2013-07-16 21:16:00,
2013-07-16 17:19:00,91.4,74.0,30.27,SW,232,1.0,3.0,57,0.00,,,0.00,Wunderground v.1.15,2013-07-16 21:19:00,
2013-07-16 17:20:00,91.4,74.0,30.27,SW,221,1.0,1.0,57,0.00,,,0.00,Wunderground v.1.15,2013-07-16 21:20:00,
2013-07-16 17:21:00,91.4,73.5,30.27,SW,234,3.0,3.0,56,0.00,,,0.00,Wunderground v.1.15,2013-07-16 21:21:00,
2013-07-16 17:24:00,90.9,72.5,30.26,WSW,246,1.0,3.0,55,0.00,,,0.00,Wunderground v.1.15,2013-07-16 21:24:00,
2013-07-16 17:25:00,90.8,74.5,30.26,WSW,246,0.0,3.0,59,0.00,,,0.00,Wunderground v.1.15,2013-07-16 21:25:00,
2013-07-16 17:26:00,90.8,74.5,30.26,WSW,245,0.0,3.0,59,0.00,,,0.00,Wunderground v.1.15,2013-07-16 21:26:00,
2013-07-16 17:29:00,90.6,73.8,30.26,West,263,1.0,3.0,58,0.00,,,0.00,Wunderground v.1.15,2013-07-16 21:29:00,
2013-07-16 17:31:00,90.4,73.6,30.26,SW,218,2.0,2.0,58,0.00,,,0.00,Wunderground v.1.15,2013-07-16 21:31:00,
2013-07-16 17:34:00,90.0,73.2,30.26,WSW,252,0.0,2.0,58,0.00,,,0.00,Wunderground v.1.15,2013-07-16 21:34:00,
2013-07-16 17:36:00,90.0,73.7,30.26,North,356,0.0,3.0,59,0.00,,,0.00,Wunderground v.1.15,2013-07-16 21:36:00,
2013-07-16 17:39:00,90.1,74.8,30.26,North,354,1.0,3.0,61,0.00,,,0.00,Wunderground v.1.15,2013-07-16 21:39:00,
2013-07-16 17:41:00,90.1,75.8,30.26,North,1,0.0,2.0,63,0.00,,,0.00,Wunderground v.1.15,2013-07-16 21:41:00,
2013-07-16 17:42:00,90.1,75.3,30.26,NW,325,1.0,4.0,62,0.00,,,0.00,Wunderground v.1.15,2013-07-16 21:42:00,
2013-07-16 17:44:00,90.1,75.3,30.26,NNW,335,1.0,4.0,62,0.00,,,0.00,Wunderground v.1.15,2013-07-16 21:44:00,
2013-07-16 17:46:00,90.2,74.9,30.26,North,8,0.0,4.0,61,0.00,,,0.00,Wunderground v.1.15,2013-07-16 21:46:00,
2013-07-16 17:47:00,90.3,74.0,30.26,SW,219,2.0,4.0,59,0.00,,,0.00,Wunderground v.1.15,2013-07-16 21:47:00,
2013-07-16 17:49:00,90.4,74.1,30.26,NW,311,2.0,4.0,59,0.00,,,0.00,Wunderground v.1.15,2013-07-16 21:49:00,
2013-07-16 17:51:00,90.1,73.3,30.26,North,1,1.0,3.0,58,0.00,,,0.00,Wunderground v.1.15,2013-07-16 21:51:00,
2013-07-16 17:52:00,90.0,74.2,30.26,WSW,240,1.0,3.0,60,0.00,,,0.00,Wunderground v.1.15,2013-07-16 21:52:00,
2013-07-16 17:54:00,90.0,73.7,30.26,WSW,242,1.0,3.0,59,0.00,,,0.00,Wunderground v.1.15,2013-07-16 21:54:00,
2013-07-16 17:56:00,90.2,73.9,30.26,North,356,0.0,3.0,59,0.00,,,0.00,Wunderground v.1.15,2013-07-16 21:56:00,
2013-07-16 17:57:00,90.3,74.0,30.26,North,356,0.0,3.0,59,0.00,,,0.00,Wunderground v.1.15,2013-07-16 21:57:00,
2013-07-16 18:00:00,90.5,76.2,30.26,NE,39,1.0,1.0,63,0.00,,,0.00,Wunderground v.1.15,2013-07-16 22:00:00,
2013-07-16 18:01:00,90.4,74.6,30.26,North,4,2.0,3.0,60,0.00,,,0.00,Wunderground v.1.15,2013-07-16 22:01:00,
2013-07-16 18:02:00,90.3,75.0,30.26,NNW,337,2.0,3.0,61,0.00,,,0.00,Wunderground v.1.15,2013-07-16 22:02:00,
2013-07-16 18:03:00,90.3,74.5,30.26,NNE,12,2.0,3.0,60,0.00,,,0.00,Wunderground v.1.15,2013-07-16 22:03:00,
2013-07-16 18:05:00,90.2,74.4,30.26,ENE,63,1.0,3.0,60,0.00,,,0.00,Wunderground v.1.15,2013-07-16 22:05:00,
2013-07-16 18:06:00,90.3,75.0,30.26,North,11,1.0,3.0,61,0.00,,,0.00,Wunderground v.1.15,2013-07-16 22:06:00,
2013-07-16 18:07:00,90.3,75.0,30.26,North,11,0.0,3.0,61,0.00,,,0.00,Wunderground v.1.15,2013-07-16 22:07:00,
2013-07-16 18:08:00,90.3,75.0,30.26,NNW,336,1.0,3.0,61,0.00,,,0.00,Wunderground v.1.15,2013-07-16 22:08:00,
2013-07-16 18:10:00,90.2,73.9,30.26,NNW,335,1.0,3.0,59,0.00,,,0.00,Wunderground v.1.15,2013-07-16 22:10:00,
2013-07-16 18:12:00,90.1,73.3,30.26,NW,308,1.0,3.0,58,0.00,,,0.00,Wunderground v.1.15,2013-07-16 22:12:00,
2013-07-16 18:13:00,90.0,73.2,30.26,North,358,0.0,3.0,58,0.00,,,0.00,Wunderground v.1.15,2013-07-16 22:13:00,
2013-07-16 18:15:00,90.2,74.4,30.26,NNW,345,1.0,3.0,60,0.00,,,0.00,Wunderground v.1.15,2013-07-16 22:15:00,
2013-07-16 18:17:00,90.2,74.4,30.26,NNE,23,1.0,3.0,60,0.00,,,0.00,Wunderground v.1.15,2013-07-16 22:17:00,
2013-07-16 18:18:00,90.2,74.4,30.26,NE,36,2.0,3.0,60,0.00,,,0.00,Wunderground v.1.15,2013-07-16 22:18:00,
2013-07-16 18:20:00,90.0,74.2,30.26,North,353,1.0,3.0,60,0.00,,,0.00,Wunderground v.1.15,2013-07-16 22:20:00,
2013-07-16 18:22:00,89.9,73.1,30.26,NNE,30,3.0,3.0,58,0.00,,,0.00,Wunderground v.1.15,2013-07-16 22:22:00,
2013-07-16 18:23:00,89.8,73.6,30.26,NNE,18,1.0,3.0,59,0.00,,,0.00,Wunderground v.1.15,2013-07-16 22:23:00,
2013-07-16 18:26:00,89.5,73.8,30.26,NNE,33,2.0,3.0,60,0.00,,,0.00,Wunderground v.1.15,2013-07-16 22:26:00,
2013-07-16 18:27:00,89.4,73.7,30.26,North,9,1.0,3.0,60,0.00,,,0.00,Wunderground v.1.15,2013-07-16 22:27:00,
2013-07-16 18:28:00,89.4,74.2,30.26,NE,41,1.0,3.0,61,0.00,,,0.00,Wunderground v.1.15,2013-07-16 22:28:00,
2013-07-16 18:29:00,89.3,73.1,30.26,North,350,2.0,3.0,59,0.00,,,0.00,Wunderground v.1.15,2013-07-16 22:29:00,
2013-07-16 18:31:00,89.3,76.0,30.26,NNE,25,1.0,2.0,65,0.00,,,0.00,Wunderground v.1.15,2013-07-16 22:31:00,
2013-07-16 18:32:00,89.3,75.0,30.26,NNE,16,1.0,2.0,63,0.00,,,0.00,Wunderground v.1.15,2013-07-16 22:32:00,
2013-07-16 18:33:00,89.3,75.0,30.26,NNE,15,0.0,2.0,63,0.00,,,0.00,Wunderground v.1.15,2013-07-16 22:33:00,
2013-07-16 18:34:00,89.3,75.5,30.26,NNE,16,1.0,2.0,64,0.00,,,0.00,Wunderground v.1.15,2013-07-16 22:34:00,
2013-07-16 18:36:00,89.2,74.5,30.26,NNW,337,1.0,3.0,62,0.00,,,0.00,Wunderground v.1.15,2013-07-16 22:36:00,
2013-07-16 18:37:00,89.1,74.4,30.26,NNW,337,0.0,3.0,62,0.00,,,0.00,Wunderground v.1.15,2013-07-16 22:37:00,
2013-07-16 18:39:00,89.0,75.2,30.26,North,352,1.0,3.0,64,0.00,,,0.00,Wunderground v.1.15,2013-07-16 22:39:00,
2013-07-16 18:42:00,88.9,74.7,30.26,NNW,327,1.0,1.0,63,0.00,,,0.00,Wunderground v.1.15,2013-07-16 22:42:00,
2013-07-16 18:43:00,88.9,74.7,30.26,NNW,335,1.0,2.0,63,0.00,,,0.00,Wunderground v.1.15,2013-07-16 22:43:00,
2013-07-16 18:44:00,88.9,74.7,30.26,NE,44,1.0,2.0,63,0.00,,,0.00,Wunderground v.1.15,2013-07-16 22:44:00,
2013-07-16 18:47:00,88.9,76.5,30.26,NE,44,0.0,2.0,67,0.00,,,0.00,Wunderground v.1.15,2013-07-16 22:47:00,
2013-07-16 18:48:00,88.9,75.6,30.26,NE,44,0.0,2.0,65,0.00,,,0.00,Wunderground v.1.15,2013-07-16 22:48:00,
2013-07-16 18:49:00,89.0,75.2,30.26,NE,44,0.0,2.0,64,0.00,,,0.00,Wunderground v.1.15,2013-07-16 22:49:00,
2013-07-16 18:52:00,88.8,74.6,30.26,NE,38,3.0,3.0,63,0.00,,,0.00,Wunderground v.1.15,2013-07-16 22:52:00,
2013-07-16 18:53:00,88.6,73.9,30.26,NNE,13,2.0,3.0,62,0.00,,,0.00,Wunderground v.1.15,2013-07-16 22:53:00,
2013-07-16 18:54:00,88.4,73.2,30.26,North,7,1.0,3.0,61,0.00,,,0.00,Wunderground v.1.15,2013-07-16 22:54:00,
2013-07-16 18:55:00,88.4,73.2,30.26,NE,43,1.0,3.0,61,0.00,,,0.00,Wunderground v.1.15,2013-07-16 22:55:00,
2013-07-16 18:57:00,88.2,74.5,30.26,North,9,1.0,3.0,64,0.00,,,0.00,Wunderground v.1.15,2013-07-16 22:57:00,
2013-07-16 18:58:00,88.1,74.8,30.26,North,9,0.0,3.0,65,0.00,,,0.00,Wunderground v.1.15,2013-07-16 22:58:00,
2013-07-16 18:59:00,88.1,74.8,30.26,NNW,348,0.0,3.0,65,0.00,,,0.00,Wunderground v.1.15,2013-07-16 22:59:00,
2013-07-16 19:00:00,88.1,74.8,30.26,NNW,348,0.0,1.0,65,0.00,,,0.00,Wunderground v.1.15,2013-07-16 23:00:00,
2013-07-16 19:03:00,88.1,75.8,30.26,North,349,0.0,1.0,67,0.00,,,0.00,Wunderground v.1.15,2013-07-16 23:03:00,
2013-07-16 19:04:00,88.1,75.8,30.26,NNW,348,0.0,1.0,67,0.00,,,0.00,Wunderground v.1.15,2013-07-16 23:04:00,
2013-07-16 19:05:00,88.0,75.7,30.26,NNW,348,0.0,1.0,67,0.00,,,0.00,Wunderground v.1.15,2013-07-16 23:05:00,
2013-07-16 19:08:00,87.7,76.3,30.26,NNW,348,0.0,1.0,69,0.00,,,0.00,Wunderground v.1.15,2013-07-16 23:08:00,
2013-07-16 19:09:00,87.6,76.2,30.26,North,350,1.0,1.0,69,0.00,,,0.00,Wunderground v.1.15,2013-07-16 23:09:00,
2013-07-16 19:10:00,87.5,76.1,30.26,North,349,0.0,0.0,69,0.00,,,0.00,Wunderground v.1.15,2013-07-16 23:10:00,
2013-07-16 19:13:00,86.9,75.5,30.26,NNE,12,0.0,2.0,69,0.00,,,0.00,Wunderground v.1.15,2013-07-16 23:13:00,
2013-07-16 19:14:00,86.8,75.4,30.26,North,11,0.0,2.0,69,0.00,,,0.00,Wunderground v.1.15,2013-07-16 23:14:00,
2013-07-16 19:15:00,86.8,75.8,30.26,North,11,1.0,2.0,70,0.00,,,0.00,Wunderground v.1.15,2013-07-16 23:15:00,
2013-07-16 19:16:00,86.6,75.2,30.26,North,8,1.0,2.0,69,0.00,,,0.00,Wunderground v.1.15,2013-07-16 23:16:00,
2013-07-16 19:18:00,86.4,75.0,30.26,NNW,345,1.0,2.0,69,0.00,,,0.00,Wunderground v.1.15,2013-07-16 23:18:00,
2013-07-16 19:19:00,86.4,75.5,30.26,NNW,344,1.0,2.0,70,0.00,,,0.00,Wunderground v.1.15,2013-07-16 23:19:00,
2013-07-16 19:20:00,86.4,75.5,30.26,NNW,345,0.0,1.0,70,0.00,,,0.00,Wunderground v.1.15,2013-07-16 23:20:00,
2013-07-16 19:21:00,86.3,75.4,30.27,NNW,345,0.0,1.0,70,0.00,,,0.00,Wunderground v.1.15,2013-07-16 23:21:00,
2013-07-16 19:23:00,86.2,75.7,30.27,NNW,344,0.0,1.0,71,0.00,,,0.00,Wunderground v.1.15,2013-07-16 23:23:00,
2013-07-16 19:24:00,86.2,75.7,30.27,NNW,348,0.0,1.0,71,0.00,,,0.00,Wunderground v.1.15,2013-07-16 23:24:00,
2013-07-16 19:25:00,86.1,75.2,30.27,NE,41,0.0,1.0,70,0.00,,,0.00,Wunderground v.1.15,2013-07-16 23:25:00,
2013-07-16 19:26:00,86.1,75.2,30.27,NE,41,1.0,1.0,70,0.00,,,0.00,Wunderground v.1.15,2013-07-16 23:26:00,
2013-07-16 19:29:00,85.8,75.3,30.27,NNE,29,0.0,2.0,71,0.00,,,0.00,Wunderground v.1.15,2013-07-16 23:29:00,
2013-07-16 19:30:00,85.7,75.2,30.27,NNE,29,0.0,1.0,71,0.00,,,0.00,Wunderground v.1.15,2013-07-16 23:30:00,
2013-07-16 19:31:00,85.7,75.2,30.27,NNE,29,0.0,1.0,71,0.00,,,0.00,Wunderground v.1.15,2013-07-16 23:31:00,
2013-07-16 19:34:00,85.6,75.1,30.27,NNE,29,0.0,1.0,71,0.00,,,0.00,Wunderground v.1.15,2013-07-16 23:34:00,
2013-07-16 19:35:00,85.6,75.5,30.27,NNE,28,0.0,1.0,72,0.00,,,0.00,Wunderground v.1.15,2013-07-16 23:35:00,
2013-07-16 19:36:00,85.6,75.1,30.27,NNE,33,0.0,1.0,71,0.00,,,0.00,Wunderground v.1.15,2013-07-16 23:36:00,
2013-07-16 19:39:00,85.7,75.6,30.27,NNE,18,0.0,1.0,72,0.00,,,0.00,Wunderground v.1.15,2013-07-16 23:39:00,
2013-07-16 19:40:00,85.6,75.1,30.27,NNE,17,0.0,0.0,71,0.00,,,0.00,Wunderground v.1.15,2013-07-16 23:40:00,
2013-07-16 19:41:00,85.6,75.1,30.27,NNE,17,0.0,0.0,71,0.00,,,0.00,Wunderground v.1.15,2013-07-16 23:41:00,
2013-07-16 19:44:00,85.6,75.1,30.27,NNE,18,0.0,1.0,71,0.00,,,0.00,Wunderground v.1.15,2013-07-16 23:44:00,
2013-07-16 19:45:00,85.6,75.9,30.27,NNE,18,0.0,1.0,73,0.00,,,0.00,Wunderground v.1.15,2013-07-16 23:45:00,
2013-07-16 19:47:00,85.8,75.7,30.27,NNE,17,0.0,1.0,72,0.00,,,0.00,Wunderground v.1.15,2013-07-16 23:47:00,
2013-07-16 19:49:00,85.9,75.8,30.27,NNE,20,0.0,1.0,72,0.00,,,0.00,Wunderground v.1.15,2013-07-16 23:49:00,
2013-07-16 19:50:00,85.9,75.8,30.27,NNE,20,0.0,1.0,72,0.00,,,0.00,Wunderground v.1.15,2013-07-16 23:50:00,
2013-07-16 19:52:00,85.8,75.7,30.28,NNE,20,0.0,1.0,72,0.00,,,0.00,Wunderground v.1.15,2013-07-16 23:52:00,
2013-07-16 19:53:00,85.7,75.6,30.28,NNE,20,0.0,1.0,72,0.00,,,0.00,Wunderground v.1.15,2013-07-16 23:53:00,
2013-07-16 19:54:00,85.6,75.9,30.27,NNE,20,0.0,1.0,73,0.00,,,0.00,Wunderground v.1.15,2013-07-16 23:54:00,
2013-07-16 19:55:00,85.5,75.9,30.27,NNE,20,0.0,1.0,73,0.00,,,0.00,Wunderground v.1.15,2013-07-16 23:55:00,
2013-07-16 19:57:00,85.2,75.6,30.27,NNE,20,0.0,1.0,73,0.00,,,0.00,Wunderground v.1.15,2013-07-16 23:57:00,
2013-07-16 19:58:00,85.2,76.0,30.28,NNE,20,0.0,1.0,74,0.00,,,0.00,Wunderground v.1.15,2013-07-16 23:58:00,
2013-07-16 19:59:00,85.1,75.9,30.27,NNE,21,0.0,1.0,74,0.00,,,0.00,Wunderground v.1.15,2013-07-16 23:59:00,
2013-07-16 20:00:00,85.1,75.9,30.27,NNE,21,0.0,0.0,74,0.00,,,0.00,Wunderground v.1.15,2013-07-17 00:00:00,
2013-07-16 20:02:00,84.9,75.7,30.28,NNE,21,0.0,0.0,74,0.00,,,0.00,Wunderground v.1.15,2013-07-17 00:02:00,
2013-07-16 20:03:00,84.8,75.6,30.28,NNE,21,0.0,0.0,74,0.00,,,0.00,Wunderground v.1.15,2013-07-17 00:03:00,
2013-07-16 20:05:00,84.5,75.3,30.28,NNE,21,0.0,0.0,74,0.00,,,0.00,Wunderground v.1.15,2013-07-17 00:05:00,
2013-07-16 20:06:00,84.3,75.1,30.28,NNE,21,0.0,0.0,74,0.00,,,0.00,Wunderground v.1.15,2013-07-17 00:06:00,
2013-07-16 20:08:00,84.0,75.2,30.28,NNE,22,0.0,0.0,75,0.00,,,0.00,Wunderground v.1.15,2013-07-17 00:08:00,
2013-07-16 20:10:00,83.8,75.4,30.28,NNE,21,0.0,0.0,76,0.00,,,0.00,Wunderground v.1.15,2013-07-17 00:10:00,
2013-07-16 20:11:00,83.6,75.2,30.28,NNE,22,0.0,0.0,76,0.00,,,0.00,Wunderground v.1.15,2013-07-17 00:11:00,
2013-07-16 20:13:00,83.4,75.4,30.28,NNE,21,0.0,0.0,77,0.00,,,0.00,Wunderground v.1.15,2013-07-17 00:13:00,
2013-07-16 20:15:00,83.2,75.2,30.28,NNE,22,0.0,0.0,77,0.00,,,0.00,Wunderground v.1.15,2013-07-17 00:15:00,
2013-07-16 20:16:00,83.0,75.4,30.28,NNE,22,0.0,0.0,78,0.00,,,0.00,Wunderground v.1.15,2013-07-17 00:16:00,
2013-07-16 20:18:00,82.7,75.5,30.28,NNE,21,0.0,0.0,79,0.00,,,0.00,Wunderground v.1.15,2013-07-17 00:18:00,
2013-07-16 20:19:00,82.6,75.4,30.28,NNE,21,0.0,0.0,79,0.00,,,0.00,Wunderground v.1.15,2013-07-17 00:19:00,
2013-07-16 20:20:00,82.4,75.2,30.28,NNE,22,0.0,0.0,79,0.00,,,0.00,Wunderground v.1.15,2013-07-17 00:20:00,
2013-07-16 20:21:00,82.2,75.4,30.28,NNE,21,0.0,0.0,80,0.00,,,0.00,Wunderground v.1.15,2013-07-17 00:21:00,
2013-07-16 20:24:00,81.8,75.4,30.28,NNE,22,0.0,0.0,81,0.00,,,0.00,Wunderground v.1.15,2013-07-17 00:24:00,
2013-07-16 20:25:00,81.6,75.2,30.27,NNE,21,0.0,0.0,81,0.00,,,0.00,Wunderground v.1.15,2013-07-17 00:25:00,
2013-07-16 20:26:00,81.5,75.5,30.28,NNE,21,0.0,0.0,82,0.00,,,0.00,Wunderground v.1.15,2013-07-17 00:26:00,
2013-07-16 20:27:00,81.5,75.5,30.28,NNE,22,0.0,0.0,82,0.00,,,0.00,Wunderground v.1.15,2013-07-17 00:27:00,
2013-07-16 20:29:00,81.2,75.5,30.28,NNE,21,0.0,0.0,83,0.00,,,0.00,Wunderground v.1.15,2013-07-17 00:29:00,
2013-07-16 20:30:00,81.1,75.4,30.28,NNE,21,0.0,0.0,83,0.00,,,0.00,Wunderground v.1.15,2013-07-17 00:30:00,
2013-07-16 20:31:00,80.9,75.2,30.28,NNE,22,0.0,0.0,83,0.00,,,0.00,Wunderground v.1.15,2013-07-17 00:31:00,
2013-07-16 20:32:00,80.9,75.2,30.28,NNE,22,0.0,0.0,83,0.00,,,0.00,Wunderground v.1.15,2013-07-17 00:32:00,
2013-07-16 20:34:00,80.6,75.3,30.28,NNE,22,0.0,0.0,84,0.00,,,0.00,Wunderground v.1.15,2013-07-17 00:34:00,
2013-07-16 20:35:00,80.6,75.3,30.28,NNE,22,0.0,0.0,84,0.00,,,0.00,Wunderground v.1.15,2013-07-17 00:35:00,
2013-07-16 20:37:00,80.4,75.1,30.28,NNE,22,0.0,0.0,84,0.00,,,0.00,Wunderground v.1.15,2013-07-17 00:37:00,
2013-07-16 20:39:00,80.1,74.8,30.28,NNE,21,0.0,0.0,84,0.00,,,0.00,Wunderground v.1.15,2013-07-17 00:39:00,
2013-07-16 20:40:00,80.1,75.2,30.28,NNE,21,0.0,0.0,85,0.00,,,0.00,Wunderground v.1.15,2013-07-17 00:40:00,
2013-07-16 20:42:00,79.9,75.0,30.28,NNE,22,0.0,0.0,85,0.00,,,0.00,Wunderground v.1.15,2013-07-17 00:42:00,
2013-07-16 20:44:00,79.7,75.1,30.28,NNE,22,0.0,0.0,86,0.00,,,0.00,Wunderground v.1.15,2013-07-17 00:44:00,
2013-07-16 20:45:00,79.7,75.1,30.28,NNE,21,0.0,0.0,86,0.00,,,0.00,Wunderground v.1.15,2013-07-17 00:45:00,
2013-07-16 20:47:00,79.4,74.8,30.28,NNE,22,0.0,0.0,86,0.00,,,0.00,Wunderground v.1.15,2013-07-17 00:47:00,
2013-07-16 20:49:00,79.1,74.9,30.28,NNE,21,0.0,0.0,87,0.00,,,0.00,Wunderground v.1.15,2013-07-17 00:49:00,
2013-07-16 20:50:00,79.1,74.9,30.28,NNE,21,0.0,0.0,87,0.00,,,0.00,Wunderground v.1.15,2013-07-17 00:50:00,
2013-07-16 20:52:00,78.8,74.6,30.28,NNE,22,0.0,0.0,87,0.00,,,0.00,Wunderground v.1.15,2013-07-17 00:52:00,
2013-07-16 20:55:00,78.6,74.7,30.28,NNE,22,0.0,0.0,88,0.00,,,0.00,Wunderground v.1.15,2013-07-17 00:55:00,
2013-07-16 20:56:00,78.5,74.6,30.28,NNE,21,0.0,0.0,88,0.00,,,0.00,Wunderground v.1.15,2013-07-17 00:56:00,
2013-07-16 20:57:00,78.4,74.5,30.28,NNE,21,0.0,0.0,88,0.00,,,0.00,Wunderground v.1.15,2013-07-17 00:57:00,
2013-07-16 21:00:00,78.2,74.7,30.27,NNE,22,0.0,0.0,89,0.00,,,0.00,Wunderground v.1.15,2013-07-17 01:00:00,
2013-07-16 21:01:00,78.1,74.6,30.28,NNE,21,0.0,0.0,89,0.00,,,0.00,Wunderground v.1.15,2013-07-17 01:01:00,
2013-07-16 21:02:00,78.0,74.5,30.27,NNE,22,0.0,0.0,89,0.00,,,0.00,Wunderground v.1.15,2013-07-17 01:02:00,
2013-07-16 21:03:00,77.9,74.4,30.27,NNE,22,0.0,0.0,89,0.00,,,0.00,Wunderground v.1.15,2013-07-17 01:03:00,
2013-07-16 21:05:00,77.8,74.6,30.28,NNE,22,0.0,0.0,90,0.00,,,0.00,Wunderground v.1.15,2013-07-17 01:05:00,
2013-07-16 21:06:00,77.7,74.5,30.28,NNE,21,0.0,0.0,90,0.00,,,0.00,Wunderground v.1.15,2013-07-17 01:06:00,
2013-07-16 21:07:00,77.6,74.4,30.28,NNE,22,0.0,0.0,90,0.00,,,0.00,Wunderground v.1.15,2013-07-17 01:07:00,
2013-07-16 21:08:00,77.6,74.4,30.28,NNE,21,0.0,0.0,90,0.00,,,0.00,Wunderground v.1.15,2013-07-17 01:08:00,
2013-07-16 21:10:00,77.4,74.6,30.28,NNE,21,0.0,0.0,91,0.00,,,0.00,Wunderground v.1.15,2013-07-17 01:10:00,
2013-07-16 21:11:00,77.4,74.6,30.28,NNE,21,0.0,0.0,91,0.00,,,0.00,Wunderground v.1.15,2013-07-17 01:11:00,
2013-07-16 21:12:00,77.3,74.5,30.28,NNE,22,0.0,0.0,91,0.00,,,0.00,Wunderground v.1.15,2013-07-17 01:12:00,
2013-07-16 21:13:00,77.2,74.4,30.28,NNE,21,0.0,0.0,91,0.00,,,0.00,Wunderground v.1.15,2013-07-17 01:13:00,
2013-07-16 21:15:00,77.1,74.3,30.28,NNE,22,0.0,0.0,91,0.00,,,0.00,Wunderground v.1.15,2013-07-17 01:15:00,
2013-07-16 21:17:00,77.1,74.3,30.28,NNE,22,0.0,0.0,91,0.00,,,0.00,Wunderground v.1.15,2013-07-17 01:17:00,
2013-07-16 21:18:00,77.0,74.2,30.28,NNE,22,0.0,0.0,91,0.00,,,0.00,Wunderground v.1.15,2013-07-17 01:18:00,
2013-07-16 21:21:00,76.8,74.3,30.28,NNE,22,0.0,0.0,92,0.00,,,0.00,Wunderground v.1.15,2013-07-17 01:21:00,
2013-07-16 21:22:00,76.8,74.3,30.28,NNE,22,0.0,0.0,92,0.00,,,0.00,Wunderground v.1.15,2013-07-17 01:22:00,
2013-07-16 21:23:00,76.7,74.2,30.28,NNE,21,0.0,0.0,92,0.00,,,0.00,Wunderground v.1.15,2013-07-17 01:23:00,
2013-07-16 21:24:00,76.7,74.2,30.28,NNE,21,0.0,0.0,92,0.00,,,0.00,Wunderground v.1.15,2013-07-17 01:24:00,
2013-07-16 21:26:00,76.6,74.1,30.28,NNE,21,0.0,0.0,92,0.00,,,0.00,Wunderground v.1.15,2013-07-17 01:26:00,
2013-07-16 21:27:00,76.5,74.0,30.28,NNE,22,0.0,0.0,92,0.00,,,0.00,Wunderground v.1.15,2013-07-17 01:27:00,
2013-07-16 21:28:00,76.5,74.0,30.28,NNE,21,0.0,0.0,92,0.00,,,0.00,Wunderground v.1.15,2013-07-17 01:28:00,
2013-07-16 21:29:00,76.4,73.9,30.28,NNE,21,0.0,0.0,92,0.00,,,0.00,Wunderground v.1.15,2013-07-17 01:29:00,
2013-07-16 21:31:00,76.2,73.7,30.29,NNE,22,0.0,0.0,92,0.00,,,0.00,Wunderground v.1.15,2013-07-17 01:31:00,
2013-07-16 21:32:00,76.2,73.7,30.29,NNE,21,0.0,0.0,92,0.00,,,0.00,Wunderground v.1.15,2013-07-17 01:32:00,
2013-07-16 21:33:00,76.1,73.6,30.29,NNE,22,0.0,0.0,92,0.00,,,0.00,Wunderground v.1.15,2013-07-17 01:33:00,
2013-07-16 21:35:00,76.0,73.8,30.29,NNE,22,0.0,0.0,93,0.00,,,0.00,Wunderground v.1.15,2013-07-17 01:35:00,
2013-07-16 21:36:00,76.0,73.8,30.29,NNE,22,0.0,0.0,93,0.00,,,0.00,Wunderground v.1.15,2013-07-17 01:36:00,
2013-07-16 21:38:00,75.9,73.7,30.29,NNE,22,0.0,0.0,93,0.00,,,0.00,Wunderground v.1.15,2013-07-17 01:38:00,
2013-07-16 21:40:00,75.9,73.7,30.29,NNE,21,0.0,0.0,93,0.00,,,0.00,Wunderground v.1.15,2013-07-17 01:40:00,
2013-07-16 21:41:00,75.8,73.6,30.29,NNE,21,0.0,0.0,93,0.00,,,0.00,Wunderground v.1.15,2013-07-17 01:41:00,
2013-07-16 21:43:00,75.7,73.5,30.29,NNE,22,0.0,0.0,93,0.00,,,0.00,Wunderground v.1.15,2013-07-17 01:43:00,
2013-07-16 21:45:00,75.7,73.8,30.29,NNE,21,0.0,0.0,94,0.00,,,0.00,Wunderground v.1.15,2013-07-17 01:45:00,
2013-07-16 21:46:00,75.7,73.8,30.29,NNE,22,0.0,0.0,94,0.00,,,0.00,Wunderground v.1.15,2013-07-17 01:46:00,
2013-07-16 21:48:00,75.7,73.8,30.29,NNE,22,0.0,0.0,94,0.00,,,0.00,Wunderground v.1.15,2013-07-17 01:48:00,
2013-07-16 21:50:00,75.6,73.8,30.29,NNE,21,0.0,0.0,94,0.00,,,0.00,Wunderground v.1.15,2013-07-17 01:50:00,
2013-07-16 21:52:00,75.6,73.8,30.30,NNE,22,0.0,0.0,94,0.00,,,0.00,Wunderground v.1.15,2013-07-17 01:52:00,
2013-07-16 21:53:00,75.5,73.7,30.30,NNE,21,0.0,0.0,94,0.00,,,0.00,Wunderground v.1.15,2013-07-17 01:53:00,
2013-07-16 21:54:00,75.5,73.7,30.30,NNE,21,0.0,0.0,94,0.00,,,0.00,Wunderground v.1.15,2013-07-17 01:54:00,
2013-07-16 21:56:00,75.5,73.7,30.30,NNE,21,0.0,0.0,94,0.00,,,0.00,Wunderground v.1.15,2013-07-17 01:56:00,
2013-07-16 21:57:00,75.4,73.6,30.30,NNE,22,0.0,0.0,94,0.00,,,0.00,Wunderground v.1.15,2013-07-17 01:57:00,
2013-07-16 21:59:00,75.4,73.9,30.29,NNE,22,0.0,0.0,95,0.00,,,0.00,Wunderground v.1.15,2013-07-17 01:59:00,
2013-07-16 22:01:00,75.3,73.8,30.29,NNE,22,0.0,0.0,95,0.00,,,0.00,Wunderground v.1.15,2013-07-17 02:01:00,
2013-07-16 22:02:00,75.2,73.4,30.29,NNE,21,0.0,0.0,94,0.00,,,0.00,Wunderground v.1.15,2013-07-17 02:02:00,
2013-07-16 22:04:00,75.2,73.4,30.29,NNE,21,0.0,0.0,94,0.00,,,0.00,Wunderground v.1.15,2013-07-17 02:04:00,
2013-07-16 22:06:00,75.0,73.2,30.29,NNE,22,0.0,0.0,94,0.00,,,0.00,Wunderground v.1.15,2013-07-17 02:06:00,
2013-07-16 22:07:00,75.0,73.2,30.29,NNE,22,0.0,0.0,94,0.00,,,0.00,Wunderground v.1.15,2013-07-17 02:07:00,
2013-07-16 22:09:00,74.9,73.4,30.29,NNE,22,0.0,0.0,95,0.00,,,0.00,Wunderground v.1.15,2013-07-17 02:09:00,
2013-07-16 22:10:00,74.9,73.4,30.29,NNE,22,0.0,0.0,95,0.00,,,0.00,Wunderground v.1.15,2013-07-17 02:10:00,
2013-07-16 22:11:00,74.9,73.4,30.30,NNE,22,0.0,0.0,95,0.00,,,0.00,Wunderground v.1.15,2013-07-17 02:11:00,
2013-07-16 22:12:00,74.8,73.3,30.30,NNE,22,0.0,0.0,95,0.00,,,0.00,Wunderground v.1.15,2013-07-17 02:12:00,
2013-07-16 22:14:00,74.8,73.3,30.30,NNE,21,0.0,0.0,95,0.00,,,0.00,Wunderground v.1.15,2013-07-17 02:14:00,
2013-07-16 22:15:00,74.7,73.2,30.30,NNE,22,0.0,0.0,95,0.00,,,0.00,Wunderground v.1.15,2013-07-17 02:15:00,
2013-07-16 22:16:00,74.7,73.2,30.30,NNE,21,0.0,0.0,95,0.00,,,0.00,Wunderground v.1.15,2013-07-17 02:16:00,
2013-07-16 22:17:00,74.6,73.1,30.30,NNE,22,0.0,0.0,95,0.00,,,0.00,Wunderground v.1.15,2013-07-17 02:17:00,
2013-07-16 22:19:00,74.7,73.2,30.30,NNE,22,0.0,0.0,95,0.00,,,0.00,Wunderground v.1.15,2013-07-17 02:19:00,
2013-07-16 22:20:00,74.7,73.2,30.30,NNE,22,0.0,0.0,95,0.00,,,0.00,Wunderground v.1.15,2013-07-17 02:20:00,
2013-07-16 22:21:00,74.6,73.1,30.30,NNE,22,0.0,0.0,95,0.00,,,0.00,Wunderground v.1.15,2013-07-17 02:21:00,
2013-07-16 22:23:00,74.6,73.1,30.30,NNE,22,0.0,0.0,95,0.00,,,0.00,Wunderground v.1.15,2013-07-17 02:23:00,
2013-07-16 22:25:00,74.6,73.1,30.30,NNE,22,0.0,0.0,95,0.00,,,0.00,Wunderground v.1.15,2013-07-17 02:25:00,
2013-07-16 22:26:00,74.5,73.0,30.30,NNE,21,0.0,0.0,95,0.00,,,0.00,Wunderground v.1.15,2013-07-17 02:26:00,
2013-07-16 22:28:00,74.5,73.0,30.30,NNE,21,0.0,0.0,95,0.00,,,0.00,Wunderground v.1.15,2013-07-17 02:28:00,
2013-07-16 22:30:00,74.5,73.0,30.30,NNE,22,0.0,0.0,95,0.00,,,0.00,Wunderground v.1.15,2013-07-17 02:30:00,
2013-07-16 22:31:00,74.4,72.9,30.30,NNE,22,0.0,0.0,95,0.00,,,0.00,Wunderground v.1.15,2013-07-17 02:31:00,
2013-07-16 22:33:00,74.4,72.9,30.30,NNE,21,0.0,0.0,95,0.00,,,0.00,Wunderground v.1.15,2013-07-17 02:33:00,
2013-07-16 22:35:00,74.3,72.8,30.30,NNE,21,0.0,0.0,95,0.00,,,0.00,Wunderground v.1.15,2013-07-17 02:35:00,
2013-07-16 22:36:00,74.2,72.7,30.30,NNE,21,0.0,0.0,95,0.00,,,0.00,Wunderground v.1.15,2013-07-17 02:36:00,
2013-07-16 22:37:00,74.2,72.7,30.30,NNE,22,0.0,0.0,95,0.00,,,0.00,Wunderground v.1.15,2013-07-17 02:37:00,
2013-07-16 22:38:00,74.1,72.6,30.30,NNE,21,0.0,0.0,95,0.00,,,0.00,Wunderground v.1.15,2013-07-17 02:38:00,
2013-07-16 22:40:00,74.0,72.5,30.30,NNE,23,0.0,0.0,95,0.00,,,0.00,Wunderground v.1.15,2013-07-17 02:40:00,
2013-07-16 22:41:00,74.0,72.5,30.30,NNE,21,0.0,0.0,95,0.00,,,0.00,Wunderground v.1.15,2013-07-17 02:41:00,
2013-07-16 22:42:00,74.1,72.9,30.30,NNE,21,0.0,0.0,96,0.00,,,0.00,Wunderground v.1.15,2013-07-17 02:42:00,
2013-07-16 22:43:00,74.1,72.9,30.30,NNE,21,0.0,0.0,96,0.00,,,0.00,Wunderground v.1.15,2013-07-17 02:43:00,
2013-07-16 22:45:00,74.1,72.9,30.30,NNE,22,0.0,0.0,96,0.00,,,0.00,Wunderground v.1.15,2013-07-17 02:45:00,
2013-07-16 22:46:00,74.1,72.9,30.30,NNE,21,0.0,0.0,96,0.00,,,0.00,Wunderground v.1.15,2013-07-17 02:46:00,
2013-07-16 22:47:00,74.0,72.8,30.30,NNE,22,0.0,0.0,96,0.00,,,0.00,Wunderground v.1.15,2013-07-17 02:47:00,
2013-07-16 22:48:00,74.0,72.8,30.30,NNE,22,0.0,0.0,96,0.00,,,0.00,Wunderground v.1.15,2013-07-17 02:48:00,
2013-07-16 22:50:00,74.0,72.8,30.30,NNE,22,0.0,0.0,96,0.00,,,0.00,Wunderground v.1.15,2013-07-17 02:50:00,
2013-07-16 22:51:00,73.9,72.7,30.30,NNE,22,0.0,0.0,96,0.00,,,0.00,Wunderground v.1.15,2013-07-17 02:51:00,
2013-07-16 22:52:00,73.9,72.7,30.30,NNE,22,0.0,0.0,96,0.00,,,0.00,Wunderground v.1.15,2013-07-17 02:52:00,
2013-07-16 22:53:00,73.9,72.7,30.30,NNE,21,0.0,0.0,96,0.00,,,0.00,Wunderground v.1.15,2013-07-17 02:53:00,
2013-07-16 22:55:00,73.9,72.7,30.30,NNE,21,0.0,0.0,96,0.00,,,0.00,Wunderground v.1.15,2013-07-17 02:55:00,
2013-07-16 22:56:00,73.9,72.7,30.30,NNE,21,0.0,0.0,96,0.00,,,0.00,Wunderground v.1.15,2013-07-17 02:56:00,
2013-07-16 22:57:00,73.9,72.7,30.30,NNE,21,0.0,0.0,96,0.00,,,0.00,Wunderground v.1.15,2013-07-17 02:57:00,
2013-07-16 22:58:00,73.9,72.7,30.30,NNE,22,0.0,0.0,96,0.00,,,0.00,Wunderground v.1.15,2013-07-17 02:58:00,
2013-07-16 23:00:00,73.9,72.7,30.30,NNE,22,0.0,0.0,96,0.00,,,0.00,Wunderground v.1.15,2013-07-17 03:00:00,
2013-07-16 23:01:00,73.8,72.6,30.30,NNE,22,0.0,0.0,96,0.00,,,0.00,Wunderground v.1.15,2013-07-17 03:01:00,
2013-07-16 23:02:00,73.8,72.6,30.30,NNE,21,0.0,0.0,96,0.00,,,0.00,Wunderground v.1.15,2013-07-17 03:02:00,
2013-07-16 23:04:00,73.7,72.5,30.30,NNE,21,0.0,0.0,96,0.00,,,0.00,Wunderground v.1.15,2013-07-17 03:04:00,
2013-07-16 23:05:00,73.7,72.5,30.30,NNE,22,0.0,0.0,96,0.00,,,0.00,Wunderground v.1.15,2013-07-17 03:05:00,
2013-07-16 23:06:00,73.7,72.5,30.30,NNE,21,0.0,0.0,96,0.00,,,0.00,Wunderground v.1.15,2013-07-17 03:06:00,
2013-07-16 23:07:00,73.7,72.5,30.30,NNE,22,0.0,0.0,96,0.00,,,0.00,Wunderground v.1.15,2013-07-17 03:07:00,
2013-07-16 23:08:00,73.6,72.4,30.30,NNE,22,0.0,0.0,96,0.00,,,0.00,Wunderground v.1.15,2013-07-17 03:08:00,
2013-07-16 23:09:00,73.6,72.4,30.30,NNE,21,0.0,0.0,96,0.00,,,0.00,Wunderground v.1.15,2013-07-17 03:09:00,
2013-07-16 23:11:00,73.5,72.3,30.30,NNE,22,0.0,0.0,96,0.00,,,0.00,Wunderground v.1.15,2013-07-17 03:11:00,
2013-07-16 23:12:00,73.5,72.3,30.30,NNE,22,0.0,0.0,96,0.00,,,0.00,Wunderground v.1.15,2013-07-17 03:12:00,
2013-07-16 23:13:00,73.5,72.3,30.30,NNE,22,0.0,0.0,96,0.00,,,0.00,Wunderground v.1.15,2013-07-17 03:13:00,
2013-07-16 23:14:00,73.5,72.3,30.30,NNE,22,0.0,0.0,96,0.00,,,0.00,Wunderground v.1.15,2013-07-17 03:14:00,
2013-07-16 23:16:00,73.4,72.2,30.30,NNE,22,0.0,0.0,96,0.00,,,0.00,Wunderground v.1.15,2013-07-17 03:16:00,
2013-07-16 23:17:00,73.4,72.2,30.30,NNE,22,0.0,0.0,96,0.00,,,0.00,Wunderground v.1.15,2013-07-17 03:17:00,
2013-07-16 23:18:00,73.4,72.2,30.30,NNE,22,0.0,0.0,96,0.00,,,0.00,Wunderground v.1.15,2013-07-17 03:18:00,
2013-07-16 23:19:00,73.3,72.1,30.30,NNE,22,0.0,0.0,96,0.00,,,0.00,Wunderground v.1.15,2013-07-17 03:19:00,
2013-07-16 23:21:00,73.2,72.0,30.30,NNE,23,0.0,0.0,96,0.00,,,0.00,Wunderground v.1.15,2013-07-17 03:21:00,
2013-07-16 23:22:00,73.2,72.0,30.29,NNE,21,0.0,0.0,96,0.00,,,0.00,Wunderground v.1.15,2013-07-17 03:22:00,
2013-07-16 23:23:00,73.2,72.0,30.29,NNE,22,0.0,0.0,96,0.00,,,0.00,Wunderground v.1.15,2013-07-17 03:23:00,
2013-07-16 23:24:00,73.3,72.1,30.29,NNE,22,0.0,0.0,96,0.00,,,0.00,Wunderground v.1.15,2013-07-17 03:24:00,
2013-07-16 23:26:00,73.3,72.1,30.29,NNE,22,0.0,0.0,96,0.00,,,0.00,Wunderground v.1.15,2013-07-17 03:26:00,
2013-07-16 23:27:00,73.3,72.1,30.29,NNE,22,0.0,0.0,96,0.00,,,0.00,Wunderground v.1.15,2013-07-17 03:27:00,
2013-07-16 23:28:00,73.3,72.4,30.29,NNE,22,0.0,0.0,97,0.00,,,0.00,Wunderground v.1.15,2013-07-17 03:28:00,
2013-07-16 23:29:00,73.2,72.0,30.29,NNE,21,0.0,0.0,96,0.00,,,0.00,Wunderground v.1.15,2013-07-17 03:29:00,
2013-07-16 23:31:00,73.2,72.0,30.29,NNE,21,0.0,0.0,96,0.00,,,0.00,Wunderground v.1.15,2013-07-17 03:31:00,
2013-07-16 23:32:00,73.2,72.0,30.29,NNE,22,0.0,0.0,96,0.00,,,0.00,Wunderground v.1.15,2013-07-17 03:32:00,
2013-07-16 23:33:00,73.1,71.9,30.29,NNE,21,0.0,0.0,96,0.00,,,0.00,Wunderground v.1.15,2013-07-17 03:33:00,
2013-07-16 23:34:00,73.1,71.9,30.29,NNE,22,0.0,0.0,96,0.00,,,0.00,Wunderground v.1.15,2013-07-17 03:34:00,
2013-07-16 23:36:00,73.0,71.8,30.30,NNE,22,0.0,0.0,96,0.00,,,0.00,Wunderground v.1.15,2013-07-17 03:36:00,
2013-07-16 23:37:00,73.0,71.8,30.29,NNE,22,0.0,0.0,96,0.00,,,0.00,Wunderground v.1.15,2013-07-17 03:37:00,
2013-07-16 23:38:00,72.9,71.7,30.29,NNE,21,0.0,0.0,96,0.00,,,0.00,Wunderground v.1.15,2013-07-17 03:38:00,
2013-07-16 23:39:00,72.9,71.7,30.29,NNE,23,0.0,0.0,96,0.00,,,0.00,Wunderground v.1.15,2013-07-17 03:39:00,
2013-07-16 23:42:00,72.9,72.0,30.29,NNE,22,0.0,0.0,97,0.00,,,0.00,Wunderground v.1.15,2013-07-17 03:42:00,
2013-07-16 23:43:00,72.9,72.0,30.29,NNE,22,0.0,0.0,97,0.00,,,0.00,Wunderground v.1.15,2013-07-17 03:43:00,
2013-07-16 23:44:00,72.8,71.9,30.29,NNE,21,0.0,0.0,97,0.00,,,0.00,Wunderground v.1.15,2013-07-17 03:44:00,
2013-07-16 23:47:00,72.9,72.0,30.29,NNE,21,0.0,0.0,97,0.00,,,0.00,Wunderground v.1.15,2013-07-17 03:47:00,
2013-07-16 23:48:00,72.8,71.9,30.29,NNE,22,0.0,0.0,97,0.00,,,0.00,Wunderground v.1.15,2013-07-17 03:48:00,
2013-07-16 23:49:00,72.8,71.9,30.29,NNE,21,0.0,0.0,97,0.00,,,0.00,Wunderground v.1.15,2013-07-17 03:49:00,
2013-07-16 23:50:00,72.8,71.9,30.29,NNE,21,0.0,0.0,97,0.00,,,0.00,Wunderground v.1.15,2013-07-17 03:50:00,
2013-07-16 23:52:00,72.7,71.8,30.30,NNE,21,0.0,0.0,97,0.00,,,0.00,Wunderground v.1.15,2013-07-17 03:52:00,
2013-07-16 23:53:00,72.6,71.7,30.29,NNE,22,0.0,0.0,97,0.00,,,0.00,Wunderground v.1.15,2013-07-17 03:53:00,
2013-07-16 23:54:00,72.6,71.7,30.29,NNE,21,0.0,0.0,97,0.00,,,0.00,Wunderground v.1.15,2013-07-17 03:54:00,
2013-07-16 23:55:00,72.6,71.7,30.30,NNE,22,0.0,0.0,97,0.00,,,0.00,Wunderground v.1.15,2013-07-17 03:55:00,
2013-07-16 23:58:00,72.5,71.6,30.30,NNE,21,0.0,0.0,97,0.00,,,0.00,Wunderground v.1.15,2013-07-17 03:58:00,
2013-07-16 23:59:00,72.6,71.7,30.30,NNE,22,0.0,0.0,97,0.00,,,0.00,Wunderground v.1.15,2013-07-17 03:59:00,